SINOD-D 1

Last updated on Sun Jun 21 2026 00:03:50 GMT+0000 (Coordinated Universal Time)

1 40968U 15058E 26171.35410212 .00002337 00000+0 19469-3 0 9997 2 40968 64.7745 248.9954 0119256 51.8221 309.3563 14.95921108117138
UTC large
Height (km)
Speed (km/s)
/
Latitude / Longitude
Inclination (degrees)
Orbital Period (minutes)
Azimuth
Elevation
Range (km)
Doppler Factor

Next 0 passes for location: London (51.5072 / 0.1276)

No passes found over London.
SINOD-D 1